Regional Weather Roundup
Issued by NWS Jackson, KY

Home | Current Version | Previous Version | Text Only | Print | Product List | Glossary On
Versions: 1 2 3 4 5 6 7 8 9 10 11 12 13 14 15 16 17 18 19 20 21 22 23 24 25 26 27 28 29 30 31 32 33 34 35 36 37 38 39 40 41 42 43 44 45 46 47 48 49 50
000
ASUS43 KJKL 192219
RWRJKL

EAST KENTUCKY HOURLY WEATHER ROUNDUP
NATIONAL WEATHER SERVICE JACKSON KY
600 PM EDT FRI SEP 19 2014

NOTE: "FAIR" INDICATES FEW OR NO CLOUDS BELOW 12,000 FEET WITH
NO SIGNIFICANT WEATHER AND/OR OBSTRUCTIONS TO VISIBILITY.

* THESE REPORTS ARE NOT UNDER NWS QUALITY CONTROL AND MAY NOT
  REPORT WEATHER SUCH AS PRECIPITATION AND FOG.

KYZ079-080-083-085-087-088-110-112-115-119-120-192300
...EASTERN KENTUCKY...

CITY           SKY/WX    TMP DP  RH WIND       PRES   REMARKS
JACKSON        SUNNY     75  62  64 CALM      30.10S
LONDON         MOSUNNY   79  58  48 S3        30.09S
SOMERSET*      SUNNY     79  55  44 CALM      30.08S
MONTICELLO*    SUNNY     82  59  45 CALM      30.08S
WILLIAMSBURG*  MOSUNNY   81  59  47 CALM      30.08
MIDDLESBORO*   SUNNY     80  59  49 CALM      30.09S
HARLAN APT*    CLEAR     79  55  44 MISG      30.10S
HAZARD APT*    PTCLDY    77  64  65 NE3       30.09
BLACK MTN*       N/A     64  57  77 S1          N/A
PIKEVILLE APT* CLOUDY    75  64  69 N5        30.11R
BIG SANDY*     CLEAR     77  64  65 N3        30.10S
MOREHEAD APT*  CLEAR     75  57  53 CALM      30.12R
$$

KYZ035-036-041-042-044-050-067-078-099-192300
...CENTRAL KENTUCKY...

CITY           SKY/WX    TMP DP  RH WIND       PRES   REMARKS
MT STERLING*   SUNNY     75  57  53 CALM      30.10S
FLEMING/MASON* SUNNY     73  55  53 E5        30.10S
DANVILLE*      MOSUNNY   75  59  57 CALM      30.08F
RICHMOND*      PTSUNNY   77  59  53 CALM      30.07F
LEXINGTON      SUNNY     77  56  48 SE6       30.08F
FRANKFORT      SUNNY     76  54  46 E5        30.07F
$$

KYZ091>093-OHZ055-061-077-WVZ005-015-034-035-042-192300
...SOUTHERN OHIO/WEST VIRGINIA...

CITY           SKY/WX    TMP DP  RH WIND       PRES   REMARKS
COVINGTON      MOSUNNY   74  48  39 E6        30.08F
COLUMBUS       MOSUNNY   76  46  34 CALM      30.11F
DAYTON         MOSUNNY   73  46  38 VRB3      30.11S
WILMINGTON     SUNNY     73  44  35 VRB3      30.09F
HUNTINGTON     SUNNY     75  61  61 SE3       30.09S
CHARLESTON     PTSUNNY   75  62  64 SE10G23   30.11R
PINEVILLE*     MOSUNNY   74  66  76 MISG      30.19S
BECKLEY        MOSUNNY   66  57  72 SE14G21   30.21R
BLUEFIELD      PTSUNNY   66  56  70 VRB6G20   30.22S
$$

VAZ002-007-008-TNZ017-027-036-066-071-192300
...SOUTHWEST VIRGINIA/EAST TENNESSEE...

CITY           SKY/WX    TMP DP  RH WIND       PRES   REMARKS
WISE*          PTSUNNY   72  57  60 CALM      30.17S
JONESVILLE*    CLEAR     81  57  44 CALM      30.11S
ABINGDON*      SUNNY     74  57  56 S9        30.17R
BRISTOL        MOSUNNY   76  57  51 SE14G22   30.12R
OAK RIDGE      SUNNY     84  61  45 CALM      30.07S
CROSSVILLE     MOSUNNY   78  60  53 SE5       30.10S
NASHVILLE      MOSUNNY   85  62  46 NE8       30.02S
$$

...KEY TO REMARKS...
VSB - VISIBILITY IN MILES
WCI - WIND CHILL INDEX
HX  - HEAT INDEX

$$



USA.gov is the U.S. government's official web portal to all federal, state and local government web resources and services.